SDT,��Ԑ��ʗ��i��Gy/h�j,�����ʗ��i��Gy/h),�~�J��i�����j,���J��,�����l�i��Gy/h�j,����l�i��Gy/h�j,�ߋ��̍ő�l�i��Gy/h�j
20110311010000,0.04,,0.0,0,0.035,0.056,0.088
20110311020000,0.04,,--,0,,,
20110311030000,0.039,,--,1,,,
20110311040000,0.04,,0.0,1,,,
20110311050000,0.04,,0.0,1,,,
20110311060000,0.041,,0.0,0,,,
20110311070000,0.041,,--,0,,,
20110311080000,0.04,,--,0,,,
20110311090000,0.04,,--,0,,,
20110311100000,0.04,,--,0,,,
20110311110000,0.039,,--,0,,,
20110311120000,0.039,,--,0,,,
20110311130000,0.039,,0.0,0,,,
20110311140000,0.04,,0.0,1,,,
20110311150000,0.04,,0.0,1,,,
20110311160000,0.041,,0.0,1,,,
20110311170000,0.046,,0.5,,,,
20110311180000,0.044,,0.0,,,,
20110311190000,0.041,,0.0,,,,
20110311200000,0.04,,0.0,,,,
20110311210000,0.043,,0.0,,,,
20110311220000,0.042,,0.0,,,,
20110311230000,0.045,,0.0,,,,
20110312000000,0.047,,0.5,,,,
20110312010000,0.047,,0.0,,,,
20110312020000,0.044,,0.0,,,,
20110312030000,0.042,,0.0,,,,
20110312040000,0.04,,0.0,,,,
20110312050000,0.04,,0.0,,,,
20110312060000,0.039,,0.0,,,,
20110312070000,0.039,,--,,,,
20110312080000,0.039,,--,,,,
20110312090000,0.039,,--,,,,
20110312100000,0.039,,--,,,,
20110312110000,0.039,,--,,,,
20110312120000,0.039,,--,,,,
20110312130000,0.039,,--,,,,
20110312140000,0.039,,--,,,,
20110312150000,0.039,,--,,,,
20110312160000,0.039,,--,,,,
20110312170000,0.039,,--,,,,
20110312180000,0.039,,--,,,,
20110312190000,0.039,,--,,,,
20110312200000,0.039,,--,,,,
20110312210000,0.04,,--,,,,
20110312220000,0.04,,--,,,,
20110312230000,0.041,,--,,,,
20110313000000,0.041,,--,,,,
20110313010000,0.041,,--,,,,
20110313020000,0.041,,--,,,,
20110313030000,0.041,,--,,,,
20110313040000,0.041,,--,,,,
20110313050000,0.041,,--,,,,
20110313060000,0.041,,--,,,,
20110313070000,0.041,,--,,,,
20110313080000,0.041,,--,,,,
20110313090000,0.041,,--,,,,
20110313100000,0.041,,--,,,,
20110313110000,0.041,,--,,,,
20110313120000,0.041,,--,,,,
20110313130000,0.041,,--,,,,
20110313140000,0.041,,--,,,,
20110313150000,0.041,,--,,,,
20110313160000,0.041,,--,,,,
20110313170000,0.041,,--,,,,
20110313180000,0.041,,--,,,,
20110313190000,0.041,,--,,,,
20110313200000,0.041,,--,,,,
20110313210000,0.041,,--,,,,
20110313220000,0.041,,--,,,,
20110313230000,0.042,,--,,,,
20110314000000,0.042,,--,,,,
20110314010000,0.043,,--,,,,
20110314020000,0.042,,--,,,,
20110314030000,0.043,,--,,,,
20110314040000,0.043,,--,,,,
20110314050000,0.043,,--,,,,
20110314060000,0.043,,--,,,,
20110314070000,0.043,,--,,,,
20110314080000,0.044,,--,,,,
20110314090000,0.045,,--,,,,
20110314100000,0.042,,--,,,,
20110314110000,0.042,,--,,,,
20110314120000,0.041,,--,,,,
20110314130000,0.04,,--,,,,
20110314140000,0.04,,--,,,,
20110314150000,0.04,,--,,,,
20110314160000,0.04,,--,,,,
20110314170000,0.04,,--,,,,
20110314180000,0.04,,--,,,,
20110314190000,0.041,,--,,,,
20110314200000,0.04,,--,,,,
20110314210000,0.04,,--,,,,
20110314220000,0.04,,--,,,,
20110314230000,0.04,,--,,,,
20110315000000,0.041,,--,,,,
20110315010000,0.041,,--,,,,
20110315020000,0.041,,--,,,,
20110315030000,0.041,,--,,,,
20110315040000,0.047,,--,,,,
20110315050000,0.048,,--,,,,
20110315060000,0.042,,0.0,,,,
20110315070000,0.042,,0.0,,,,
20110315080000,0.043,,--,,,,
20110315090000,0.042,,--,,,,
20110315100000,0.042,,--,,,,
20110315110000,0.042,,--,,,,
20110315120000,0.042,,--,,,,
20110315130000,0.042,,0.0,,,,
20110315140000,0.042,,0.0,,,,
20110315150000,0.048,,0.0,,,,
20110315160000,0.287,,0.0,,,,
20110315170000,7.044,,1.0,,,,
20110315180000,14.138,,1.0,,,,
20110315190000,14.553,,0.5,,,,
20110315200000,14.486,,1.0,,,,
20110315210000,14.344,,1.0,,,,
20110315220000,14.571,,2.0,,,,
20110315230000,14.497,,1.5,,,,
20110316000000,16.967,,2.0,,,,
20110316010000,17.201,,1.0,,,,
20110316020000,16.769,,1.5,,,,
20110316030000,16.01,,1.0,,,,
20110316040000,15.51,,0.0,,,,
20110316050000,15.363,,0.0,,,,
20110316060000,15.267,,0.0,,,,
20110316070000,15.177,,0.0,,,,
20110316080000,15.087,,--,,,,
20110316090000,15,,0.0,,,,
20110316100000,14.924,,0.0,,,,
20110316110000,14.872,,0.0,,,,
20110316120000,14.709,,0.5,,,,
20110316130000,14.447,,0.5,,,,
20110316140000,14.399,,0.0,,,,
20110316150000,14.326,,0.0,,,,
20110316160000,14.238,,0.0,,,,
20110316170000,14.135,,0.0,,,,
20110316180000,14.037,,0.0,,,,
20110316190000,13.968,,0.0,,,,
20110316200000,13.891,,0.0,,,,
20110316210000,13.808,,0.0,,,,
20110316220000,13.618,,0.5,,,,
20110316230000,13.483,,0.0,,,,
20110317000000,13.39,,0.0,,,,
20110317010000,13.269,,0.0,,,,
20110317020000,13.196,,0.0,,,,
20110317030000,13.125,,0.0,,,,
20110317040000,13.05,,0.0,,,,
20110317050000,12.969,,0.0,,,,
20110317060000,12.888,,0.0,,,,
20110317070000,12.801,,--,,,,
20110317080000,12.707,,0.0,,,,
20110317090000,12.608,,--,,,,
20110317100000,12.517,,--,,,,
20110317110000,12.447,,--,,,,
20110317120000,12.368,,--,,,,
20110317130000,12.283,,--,,,,
20110317140000,12.201,,0.0,,,,
20110317150000,12.115,,0.0,,,,
20110317160000,12.036,,--,,,,
20110317170000,11.96,,--,,,,
20110317180000,11.882,,--,,,,
20110317190000,11.818,,0.0,,,,
20110317200000,11.754,,0.0,,,,
20110317210000,11.686,,0.0,,,,
20110317220000,11.619,,0.0,,,,
20110317230000,11.547,,0.0,,,,
20110318000000,11.47,,0.0,,,,
20110318010000,11.399,,--,,,,
20110318020000,11.33,,--,,,,
20110318030000,11.261,,--,,,,
20110318040000,11.185,,--,,,,
20110318050000,11.106,,--,,,,
20110318060000,11.036,,--,,,,
20110318070000,10.957,,--,,,,
20110318080000,10.865,,0.0,,,,
20110318090000,10.787,,0.0,,,,
20110318100000,10.71,,0.0,,,,
20110318110000,10.629,,--,,,,
20110318120000,10.546,,--,,,,
20110318130000,10.482,,--,,,,
20110318140000,10.415,,--,,,,
20110318150000,10.349,,--,,,,
20110318160000,10.281,,--,,,,
20110318170000,10.216,,--,,,,
20110318180000,10.156,,--,,,,
20110318190000,10.104,,--,,,,
20110318200000,10.054,,--,,,,
20110318210000,10.001,,--,,,,
20110318220000,9.956,,--,,,,
20110318230000,9.907,,--,,,,
20110319000000,9.853,,--,,,,
20110319010000,9.793,,--,,,,
20110319020000,9.737,,--,,,,
20110319030000,9.681,,--,,,,
20110319040000,9.622,,--,,,,
20110319050000,9.567,,--,,,,
20110319060000,9.511,,--,,,,
20110319070000,9.453,,--,,,,
20110319080000,9.386,,--,,,,
20110319090000,9.313,,--,,,,
20110319100000,9.247,,--,,,,
20110319110000,9.181,,--,,,,
20110319120000,9.116,,--,,,,
20110319130000,9.04,,--,,,,
20110319140000,9.891,,--,,,,
20110319150000,8.92,,0.0,,,,
20110319160000,8.869,,--,,,,
20110319170000,8.823,,0.0,,,,
20110319180000,8.778,,0.0,,,,
20110319190000,8.732,,--,,,,
20110319200000,8.686,,--,,,,
20110319210000,8.641,,0.0,,,,
20110319220000,8.595,,--,,,,
20110319230000,8.549,,--,,,,
20110320000000,8.511,,--,,,,
20110320010000,8.467,,--,,,,
20110320020000,8.42,,--,,,,
20110320030000,8.38,,--,,,,
20110320040000,8.334,,--,,,,
20110320050000,8.287,,--,,,,
20110320060000,8.24,,--,,,,
20110320070000,8.196,,--,,,,
20110320080000,8.142,,--,,,,
20110320090000,8.097,,--,,,,
20110320100000,8.034,,--,,,,
20110320110000,7.969,,--,,,,
20110320120000,7.913,,--,,,,
20110320130000,7.862,,--,,,,
20110320140000,7.819,,--,,,,
20110320150000,7.927,,--,,,,
20110320160000,7.856,,--,,,,
20110320170000,7.755,,--,,,,
20110320180000,7.713,,0.0,,,,
20110320190000,7.684,,0.0,,,,
20110320200000,7.673,,0.0,,,,
20110320210000,7.624,,0.0,,,,
20110320220000,7.569,,--,,,,
20110320230000,7.532,,0.0,,,,
20110321000000,7.503,,0.0,,,,
20110321010000,7.474,,--,,,,
20110321020000,7.444,,--,,,,
20110321030000,7.407,,0.0,,,,
20110321040000,7.365,,0.0,,,,
20110321050000,7.323,,0.0,,,,
20110321060000,7.244,,0.0,,,,
20110321070000,7.141,,--,,,,
20110321080000,7.109,,--,,,,
20110321090000,7.07,,--,,,,
20110321100000,7.039,,--,,,,
20110321110000,6.998,,--,,,,
20110321120000,6.96,,--,,,,
20110321130000,6.921,,0.0,,,,
20110321140000,6.88,,0.0,,,,
20110321150000,6.838,,0.0,,,,
20110321160000,6.805,,--,,,,
20110321170000,6.77,,--,,,,
20110321180000,6.74,,--,,,,
20110321190000,6.704,,--,,,,
20110321200000,6.67,,--,,,,
20110321210000,6.636,,--,,,,
20110321220000,6.605,,--,,,,
20110321230000,6.573,,--,,,,
20110322000000,6.544,,--,,,,
20110322010000,6.514,,--,,,,
20110322020000,6.478,,0.0,,,,
20110322030000,6.446,,0.0,,,,
20110322040000,6.417,,--,,,,
20110322050000,6.381,,0.0,,,,
20110322060000,6.347,,0.0,,,,
20110322070000,6.315,,--,,,,
20110322080000,6.283,,--,,,,
20110322090000,6.243,,--,,,,
20110322100000,6.206,,--,,,,
20110322110000,6.173,,--,,,,
20110322120000,6.14,,--,,,,
20110322130000,6.1,,--,,,,
20110322140000,6.061,,--,,,,
20110322150000,6.035,,--,,,,
20110322160000,6.007,,--,,,,
20110322170000,5.978,,--,,,,
20110322180000,5.951,,0.0,,,,
20110322190000,5.919,,0.0,,,,
20110322200000,5.889,,0.0,,,,
20110322210000,5.846,,0.0,,,,
20110322220000,5.761,,0.5,,,,
20110322230000,5.654,,1.5,,,,
20110323000000,5.582,,0.5,,,,
20110323010000,5.584,,0.0,,,,
20110323020000,5.588,,0.0,,,,
20110323030000,5.585,,--,,,,
20110323040000,5.576,,0.0,,,,
20110323050000,5.565,,0.0,,,,
20110323060000,5.549,,0.0,,,,
20110323070000,5.529,,0.0,,,,
20110323080000,5.504,,--,,,,
20110323090000,5.478,,0.0,,,,
20110323100000,5.456,,0.0,,,,
20110323110000,5.429,,0.0,,,,
20110323120000,5.401,,0.0,,,,
20110323130000,5.377,,--,,,,
20110323140000,5.357,,0.0,,,,
20110323150000,5.333,,--,,,,
20110323160000,5.308,,0.0,,,,
20110323170000,5.284,,--,,,,
20110323180000,5.263,,0.0,,,,
20110323190000,5.243,,0.0,,,,
20110323200000,5.219,,0.0,,,,
20110323210000,5.2,,0.0,,,,
20110323220000,5.179,,0.0,,,,
20110323230000,5.159,,0.0,,,,
20110324000000,5.137,,0.0,,,,
20110324010000,5.12,,0.0,,,,
20110324020000,5.095,,--,,,,
20110324030000,5.076,,--,,,,
20110324040000,5.056,,--,,,,
20110324050000,5.033,,--,,,,
20110324060000,5.012,,--,,,,
20110324070000,4.991,,--,,,,
20110324080000,4.969,,--,,,,
20110324090000,4.945,,--,,,,
20110324100000,4.922,,--,,,,
20110324110000,4.898,,--,,,,
20110324120000,4.874,,--,,,,
20110324130000,4.854,,--,,,,
20110324140000,4.835,,--,,,,
20110324150000,4.809,,--,,,,
20110324160000,4.789,,--,,,,
20110324170000,4.76,,--,,,,
20110324180000,4.738,,--,,,,
20110324190000,4.725,,--,,,,
20110324200000,4.717,,--,,,,
20110324210000,4.698,,--,,,,
20110324220000,4.678,,--,,,,
20110324230000,4.661,,--,,,,
20110325000000,4.643,,--,,,,
20110325010000,4.627,,--,,,,
20110325020000,4.61,,--,,,,
20110325030000,4.59,,--,,,,
20110325040000,4.577,,--,,,,
20110325050000,4.558,,--,,,,
20110325060000,4.539,,--,,,,
20110325070000,4.521,,--,,,,
20110325080000,4.498,,--,,,,
20110325090000,4.474,,--,,,,
20110325100000,4.453,,--,,,,
20110325110000,4.426,,--,,,,
20110325120000,4.407,,--,,,,
20110325130000,4.385,,0.0,,,,
20110325140000,4.369,,0.0,,,,
20110325150000,4.337,,0.0,,,,
20110325160000,4.295,,0.0,,,,
20110325170000,4.268,,0.5,,,,
20110325180000,4.237,,1.5,,,,
20110325190000,4.158,,2.5,,,,
20110325200000,4.118,,2.0,,,,
20110325210000,4.073,,1.5,,,,
20110325220000,4.036,,0.5,,,,
20110325230000,4.006,,0.5,,,,
20110326000000,3.983,,1.0,,,,
20110326010000,3.949,,1.0,,,,
20110326020000,3.919,,0.5,,,,
20110326030000,3.896,,1.0,,,,
20110326040000,3.889,,0.0,,,,
20110326050000,3.887,,0.5,,,,
20110326060000,3.888,,0.0,,,,
20110326070000,3.885,,0.0,,,,
20110326080000,3.874,,0.0,,,,
20110326090000,3.878,,0.0,,,,
20110326100000,3.89,,0.0,,,,
20110326110000,3.904,,0.0,,,,
20110326120000,3.91,,0.0,,,,
20110326130000,3.909,,0.0,,,,
20110326140000,3.9,,--,,,,
20110326150000,3.893,,--,,,,
20110326160000,3.886,,--,,,,
20110326170000,3.872,,--,,,,
20110326180000,3.86,,0.0,,,,
20110326190000,3.849,,0.0,,,,
20110326200000,3.828,,0.0,,,,
20110326210000,3.818,,0.0,,,,
20110326220000,3.805,,0.0,,,,
20110326230000,3.794,,0.0,,,,
20110327000000,3.781,,0.0,,,,
20110327010000,3.768,,0.0,,,,
20110327020000,3.757,,0.0,,,,
20110327030000,3.743,,0.5,,,,
20110327040000,3.721,,0.0,,,,
20110327050000,3.696,,0.5,,,,
20110327060000,3.686,,0.0,,,,
20110327070000,3.675,,0.0,,,,
20110327080000,3.663,,0.0,,,,
20110327090000,3.653,,0.0,,,,
20110327100000,3.647,,0.0,,,,
20110327110000,3.638,,0.0,,,,
20110327120000,3.627,,0.0,,,,
20110327130000,3.617,,--,,,,
20110327140000,3.606,,--,,,,
20110327150000,3.597,,0.0,,,,
20110327160000,3.583,,0.0,,,,
20110327170000,3.57,,--,,,,
20110327180000,3.561,,--,,,,
20110327190000,3.552,,--,,,,
20110327200000,3.542,,--,,,,
20110327210000,3.53,,--,,,,
20110327220000,3.521,,--,,,,
20110327230000,3.512,,--,,,,
20110328000000,3.501,,--,,,,
20110328010000,3.494,,--,,,,
20110328020000,3.483,,--,,,,
20110328030000,3.473,,--,,,,
20110328040000,3.461,,--,,,,
20110328050000,3.45,,--,,,,
20110328060000,3.44,,--,,,,
20110328070000,3.428,,--,,,,
20110328080000,3.419,,--,,,,
20110328090000,3.407,,--,,,,
20110328100000,3.4,,--,,,,
20110328110000,3.382,,--,,,,
20110328120000,3.372,,--,,,,
20110328130000,3.361,,--,,,,
20110328140000,3.35,,--,,,,
20110328150000,3.339,,--,,,,
20110328160000,3.329,,--,,,,
20110328170000,3.319,,--,,,,
20110328180000,3.311,,--,,,,
20110328190000,3.304,,--,,,,
20110328200000,3.275,,--,,,,
20110328210000,3.289,,--,,,,
20110328220000,3.278,,--,,,,
20110328230000,3.266,,--,,,,
20110329000000,3.255,,--,,,,
20110329010000,3.246,,--,,,,
20110329020000,3.234,,--,,,,
20110329030000,3.224,,--,,,,
20110329040000,3.217,,--,,,,
20110329050000,3.207,,--,,,,
20110329060000,3.199,,--,,,,
20110329070000,3.188,,--,,,,
20110329080000,3.176,,--,,,,
20110329090000,3.169,,--,,,,
20110329100000,3.161,,--,,,,
20110329110000,3.149,,--,,,,
20110329120000,3.137,,--,,,,
20110329130000,3.128,,--,,,,
20110329140000,3.117,,--,,,,
20110329150000,3.107,,--,,,,
20110329160000,3.104,,--,,,,
20110329170000,3.098,,--,,,,
20110329180000,3.085,,--,,,,
20110329190000,3.079,,--,,,,
20110329200000,3.069,,--,,,,
20110329210000,3.062,,--,,,,
20110329220000,3.053,,--,,,,
20110329230000,3.046,,--,,,,
20110330000000,3.039,,--,,,,
20110330010000,3.03,,--,,,,
20110330020000,3.024,,--,,,,
20110330030000,3.015,,--,,,,
20110330040000,3.009,,--,,,,
20110330050000,3.002,,--,,,,
20110330060000,2.993,,--,,,,
20110330070000,2.986,,--,,,,
20110330080000,2.98,,--,,,,
20110330090000,2.97,,--,,,,
20110330100000,2.965,,--,,,,
20110330110000,2.962,,--,,,,
20110330120000,2.951,,--,,,,
20110330130000,2.942,,--,,,,
20110330140000,2.934,,--,,,,
20110330150000,2.926,,--,,,,
20110330160000,2.923,,--,,,,
20110330170000,2.914,,--,,,,
20110330180000,2.901,,--,,,,
20110330190000,2.896,,0,,,,
20110330200000,2.886,,0,,,,
20110330210000,2.875,,0,,,,
20110330220000,2.87,,0,,,,
20110330230000,2.865,,--,,,,
20110331000000,2.862,,--,,,,
20110331010000,2.857,,--,,,,
20110331020000,2.85,,--,,,,
20110331030000,2.843,,--,,,,
20110331040000,2.837,,0,,,,
20110331050000,2.83,,0,,,,
20110331060000,2.823,,0,,,,
20110331070000,2.811,,0,,,,
20110331080000,2.797,,0,,,,
20110331090000,2.791,,0,,,,
20110331100000,2.789,,--,,,,
20110331110000,2.785,,--,,,,
20110331120000,2.781,,--,,,,
20110331130000,2.776,,--,,,,
20110331140000,2.768,,--,,,,
20110331150000,2.76,,--,,,,
20110331160000,2.751,,--,,,,
20110331170000,2.742,,--,,,,
20110331180000,2.732,,--,,,,
20110331190000,2.73,,--,,,,
20110331200000,2.73,,--,,,,
20110331210000,2.724,,--,,,,
20110331220000,2.72,,--,,,,
20110331230000,2.713,,--,,,,
20110401000000,2.708,,--,,,,
